OBJECT D, 49024

Orbit data source: Space-Track

You're viewing an Uncataloged Satellite

Recently launched and/or uncataloged satellites may have evolving metadata. Metadata may include but not limited to: Owner, Maufacturer, Bus, Motor, and Mission.

OBJECT D, 49024 is a satellite owned by CASC (CN) in SSO that was launched on Sun, 04 Jul 2021 UTC launched from the Jiuquan Satellite Launch Center, China (JSC). Unknown objects in Earth's orbit typically refer to objects detected orbiting the Earth but have not yet been identified or cataloged. These objects could be anything from previously untracked satellites, spent rocket stages, debris from satellite collisions, or even natural meteoroids temporarily captured by Earth's gravity.

Loading next visibility...
Identifier
49024, 2021-062D
Orbit
SSO
Country
Flag of CNCN / PRC
Related business
Manufacturer
CALT
Mission
Spacecraft
Bus & Motor
Unknown
Mass
1 kg wet, 1 kg dry
Launch date (UTC)
2021-07-04 (5 years ago)
Launch vehicle
Unknown
Launch site
Jiuquan Satellite Launch Center, China (JSC)
Object type
Unknown
Shape & HBR
Box, 0.1 m
Radar Cross Section
0.060 m², Small (<0.1 m²)

Expand to show TLE details & history
Last TLE update: 1 day ago

TLE from 1 day ago
0 OBJECT D
1 49024U 21062D   26172.28362668  .00000141  00000-0  72587-4 0  9998
2 49024  98.6575 193.8601 0006146  55.9260 304.2504 14.29543030258018
Epoch: 2026-06-21T06:48Z
TLE epoch observation values (Epoch: 2026-06-21T06:48:25.345Z)
Latitude
-0.00006°
Longitude
-177.73161°
Altitude
793.709 km
Speed
7.458 km/s
True Right ascension
12h 55m 26s
True Declination
0° 00' 00"
Sunlit
Object was in daylight at epoch
Visualization orbit readout
Latitude
Unknown
Longitude
Unknown
Altitude
Unknown
Speed
Unknown
Apparent Right ascension
Unknown
Apparent Declination
Unknown
Sunlit
N/A
Visualization observer readout
Local Sidereal Time
21:38:22
Azimuth
Unknown
Elevation
Unknown
Doppler factor
Unknown
Orbital elements
Apogee altitude
794.808 km
Perigee altitude
785.996 km
Semi-major axis
7,168.539 km
Eccentricity
0.00061
Inclination
98.6575°
RAAN
193.8601°
Arg. of periapsis
55.926°
True anomaly
304.19216°
Mean anomaly
304.2504°
Eccentric anomaly
304.22128°
Mean motion
3.576 °/min
Orbital period
100.67 mins
BSTAR
0.000072587
Loading maneuver chart data...
Computing Atmospheric mass density...
Loading historical data...
Loading historical data...
Loading historical data...
Loading historical data...
Loading historical data...
Loading historical data...
Loading historical data...
Other satellites on launch #62 in the year 2021 (2021-07-04 UTC)

Documentation

Showing up to 5 results
|